Weather History for Georgetown, DE

Change the Weather History Date:

Sunday, February 16, 2014

  Actual Average Record
Temperature  
Mean Temperature 33 °F 38 °F  
Max Temperature 38 °F 47 °F 74 °F (1989)
Min Temperature 27 °F 28 °F 10 °F (1987)
Degree Days  
Heating Degree Days 32 27  
Month to date heating degree days 495 456  
Since 1 July heating degree days 3041 2966  
Cooling Degree Days 0 0  
Month to date cooling degree days 0 0  
Year to date cooling degree days 0 0  
Moisture  
Dew Point 13 °F    
Average Humidity 47    
Maximum Humidity 58    
Minimum Humidity 35    
Precipitation  
Precipitation 0.00 in 0.10 in 1.18 in (1992)
Month to date precipitation 3.46 1.57  
Year to date precipitation 6.50 4.49  
Sea Level Pressure  
Sea Level Pressure 30.04 in    
Wind  
Wind Speed 7 mph (NW)    
Max Wind Speed 14 mph    
Max Gust Speed 22 mph    
Visibility 10 miles    
Events      
T = Trace of Precipitation, MM = Missing Value Source: NWS Daily Summary

Daily Weather History Graph

Daily Weather History Graph

Search for Another Location

Airport:

Trip Planner

Search our weather history database for the weather conditions in past years. The results will help you decide how hot, cold, wet, or windy it might be!

Date:

Astronomy

Feb. 16, 2014 Rise Set
Actual Time 6:51 AM EST 5:40 PM EST
Civil Twilight 6:24 AM EST 6:07 PM EST
Nautical Twilight 5:52 AM EST 6:38 PM EST
Astronomical Twilight 5:22 AM EST 7:09 PM EST
Moon 7:33 PM EST 7:21 AM EST
Length of Visible Light 11h 43m
Length of Day
10h 49m
Full, 97% of the Moon is Illuminated
Feb 16
Full
Feb 22
Last Quarter
Mar 1
New
Mar 8
First Quarter
Mar 16
Full

Hourly Weather History & Observations

Time (EST) Temp. Windchill Dew Point Humidity Pressure Visibility Wind Dir Wind Speed Gust Speed Precip Events Conditions
12:54 AM 30.0 °F 21.7 °F 15.1 °F 54% 29.92 in 10.0 mi WNW 9.2 mph 17.3 mph N/A   Clear
1:54 AM 28.9 °F 21.1 °F 12.9 °F 51% 29.94 in 10.0 mi NW 8.1 mph - N/A   Clear
2:54 AM 28.0 °F 19.3 °F 14.0 °F 56% 29.96 in 10.0 mi WNW 9.2 mph - N/A   Clear
3:54 AM 28.0 °F 21.7 °F 12.0 °F 51% 29.98 in 10.0 mi WNW 5.8 mph - N/A   Clear
4:54 AM 28.0 °F 18.6 °F 12.0 °F 51% 29.99 in 10.0 mi WNW 10.4 mph - N/A   Clear
5:54 AM 28.0 °F 20.8 °F 12.0 °F 51% 29.99 in 10.0 mi NW 6.9 mph - N/A   Clear
6:54 AM 27.0 °F 20.5 °F 10.9 °F 51% 30.02 in 10.0 mi WNW 5.8 mph - N/A   Clear
7:54 AM 27.0 °F 19.5 °F 10.9 °F 51% 30.04 in 10.0 mi WNW 6.9 mph - N/A   Clear
8:54 AM 28.0 °F 20.0 °F 10.0 °F 47% 30.06 in 10.0 mi WNW 8.1 mph 17.3 mph N/A   Partly Cloudy
9:54 AM 30.0 °F 20.5 °F 10.0 °F 43% 30.07 in 10.0 mi WNW 11.5 mph - N/A   Clear
10:54 AM 32.0 °F 24.8 °F 12.9 °F 45% 30.06 in 10.0 mi West 8.1 mph - N/A   Clear
11:54 AM 33.1 °F 27.7 °F 12.9 °F 43% 30.05 in 10.0 mi Variable 5.8 mph - N/A   Clear
12:54 PM 34.0 °F 26.6 °F 12.9 °F 42% 30.03 in 10.0 mi West 9.2 mph - N/A   Clear
1:54 PM 36.0 °F 30.3 °F 12.9 °F 39% 30.01 in 10.0 mi NW 6.9 mph - N/A   Clear
2:54 PM 37.0 °F 34.5 °F 12.0 °F 36% 29.99 in 10.0 mi West 3.5 mph - N/A   Clear
3:54 PM 37.0 °F 31.6 °F 12.9 °F 37% 30.00 in 10.0 mi West 6.9 mph - N/A   Clear
4:54 PM 35.1 °F 29.3 °F 14.0 °F 42% 30.02 in 10.0 mi North 6.9 mph - N/A   Overcast
5:54 PM 34.0 °F 29.8 °F 15.1 °F 46% 30.03 in 10.0 mi North 4.6 mph - N/A   Overcast
6:54 PM 33.1 °F 28.7 °F 16.0 °F 50% 30.06 in 10.0 mi North 4.6 mph - N/A   Overcast
7:54 PM 32.0 °F 28.7 °F 15.1 °F 50% 30.09 in 10.0 mi Variable 3.5 mph - N/A   Overcast
8:54 PM 32.0 °F 27.5 °F 14.0 °F 48% 30.12 in 10.0 mi NNW 4.6 mph - N/A   Overcast
9:54 PM 32.0 °F 26.4 °F 18.0 °F 56% 30.14 in 10.0 mi NNW 5.8 mph - N/A   Overcast
10:54 PM 30.9 °F 25.2 °F 17.1 °F 57% 30.16 in 10.0 mi NNW 5.8 mph - N/A   Scattered Clouds
11:54 PM 30.0 °F 25.2 °F 17.1 °F 59% 30.19 in 10.0 mi WNW 4.6 mph - N/A   Clear